Precipitable_Water
0.97 1.03 0.90 0.90 0.91 1.01 1.16 1.25 1.27 1.30 1.36 1.32 1.30 1.30 1.21 1.13 1.08 1.05 1.03 1.02 1.00 1.04 1.08 1.10 1.11 1.15 1.16 1.14 1.17 1.18 1.16 1.20 1.15 1.17 1.19 1.25 1.21 1.27 1.31 1.31 1.33 1.30 1.44
1.05 0.99 0.92 0.92 0.93 0.99 1.11 1.19 1.21 1.28 1.34 1.31 1.31 1.30 1.18 1.14 1.10 1.08 1.07 1.06 1.06 1.05 1.07 1.10 1.11 1.14 1.17 1.16 1.18 1.23 1.28 1.29 1.22 1.20 1.20 1.26 1.27 1.31 1.44 1.40 1.27 1.21 1.26
1.04 1.00 0.95 0.96 0.98 0.98 1.05 1.13 1.19 1.25 1.29 1.27 1.28 1.26 1.15 1.13 1.12 1.12 1.11 1.10 1.08 1.07 1.09 1.11 1.10 1.10 1.16 1.20 1.21 1.26 1.28 1.28 1.36 1.46 1.46 1.40 1.29 1.28 1.30 1.29 1.18 1.18 1.21
1.09 1.10 0.99 1.01 1.04 1.04 1.09 1.14 1.20 1.23 1.24 1.23 1.24 1.23 1.15 1.14 1.14 1.15 1.16 1.14 1.12 1.10 1.12 1.15 1.12 1.12 1.13 1.19 1.22 1.26 1.31 1.32 1.40 1.51 1.56 1.42 1.26 1.27 1.25 1.24 1.22 1.19 1.17
1.11 1.19 1.11 1.05 1.09 1.11 1.14 1.18 1.21 1.23 1.21 1.19 1.21 1.18 1.14 1.14 1.16 1.18 1.20 1.19 1.16 1.12 1.14 1.18 1.18 1.16 1.14 1.17 1.23 1.23 1.26 1.28 1.34 1.47 1.47 1.42 1.33 1.26 1.30 1.32 1.26 1.29 1.32
1.11 1.22 1.23 1.09 1.12 1.14 1.16 1.21 1.25 1.25 1.24 1.21 1.19 1.13 1.13 1.13 1.17 1.22 1.23 1.25 1.23 1.19 1.15 1.16 1.19 1.22 1.21 1.25 1.26 1.23 1.24 1.23 1.38 1.51 1.42 1.38 1.47 1.22 1.26 1.41 1.38 1.32 1.22
1.10 1.34 1.29 1.14 1.15 1.16 1.17 1.24 1.28 1.29 1.28 1.25 1.17 1.12 1.12 1.14 1.19 1.23 1.26 1.31 1.30 1.26 1.20 1.13 1.11 1.12 1.16 1.21 1.24 1.27 1.22 1.21 1.36 1.50 1.40 1.38 1.47 1.23 1.28 1.30 1.31 1.34 1.33
1.15 1.33 1.32 1.25 1.22 1.22 1.21 1.22 1.27 1.30 1.29 1.22 1.18 1.16 1.15 1.18 1.22 1.27 1.31 1.37 1.37 1.33 1.26 1.21 1.18 1.15 1.12 1.10 1.12 1.17 1.22 1.24 1.28 1.42 1.45 1.64 1.63 1.45 1.41 1.40 1.36 1.33 1.35
1.22 1.29 1.32 1.30 1.30 1.27 1.28 1.26 1.25 1.26 1.25 1.23 1.21 1.22 1.23 1.25 1.29 1.31 1.35 1.41 1.45 1.42 1.38 1.31 1.27 1.24 1.19 1.16 1.14 1.14 1.16 1.16 1.28 1.41 1.37 1.55 1.45 1.41 1.46 1.46 1.54 1.57 1.47
1.21 1.29 1.35 1.36 1.35 1.36 1.36 1.34 1.31 1.28 1.28 1.28 1.28 1.28 1.29 1.33 1.36 1.38 1.44 1.47 1.49 1.50 1.48 1.43 1.34 1.31 1.25 1.22 1.20 1.20 1.19 1.18 1.12 1.36 1.31 1.43 1.44 1.37 1.49 1.50 1.50 1.58 1.63
1.14 1.21 1.39 1.42 1.43 1.44 1.44 1.40 1.36 1.35 1.34 1.35 1.36 1.36 1.38 1.40 1.45 1.50 1.48 1.56 1.52 1.53 1.55 1.51 1.42 1.35 1.28 1.26 1.24 1.21 1.24 1.26 1.37 1.49 1.50 1.61 1.50 1.37 1.39 1.48 1.49 1.57 1.59
0.99 1.14 1.30 1.41 1.44 1.48 1.47 1.48 1.40 1.41 1.38 1.36 1.39 1.42 1.43 1.45 1.55 1.60 1.66 1.59 1.58 1.59 1.60 1.50 1.40 1.31 1.25 1.27 1.42 1.42 1.31 1.33 1.53 1.59 1.61 1.61 1.60 1.50 1.54 1.50 1.53 1.54 1.58
1.06 1.16 1.29 1.38 1.45 1.46 1.42 1.56 1.46 1.48 1.45 1.43 1.45 1.51 1.48 1.54 1.61 1.67 1.66 1.68 1.64 1.66 1.61 1.46 1.34 1.31 1.33 1.42 1.54 1.53 1.50 1.53 1.54 1.58 1.80 1.67 1.61 1.58 1.67 1.60 1.56 1.55 1.57
1.14 1.12 1.28 1.45 1.52 1.55 1.57 1.62 1.57 1.54 1.54 1.56 1.54 1.59 1.56 1.57 1.60 1.61 1.63 1.71 1.76 1.78 1.63 1.54 1.48 1.43 1.37 1.46 1.41 1.41 1.48 1.52 1.56 1.58 1.58 1.58 1.56 1.69 1.73 1.70 1.62 1.56 1.55
1.14 1.24 1.28 1.42 1.53 1.54 1.56 1.63 1.64 1.61 1.64 1.61 1.65 1.63 1.61 1.61 1.62 1.67 1.69 1.74 1.76 1.71 1.41 1.25 1.21 1.23 1.30 1.19 1.38 1.36 1.43 1.38 1.39 1.35 1.38 1.43 1.52 1.56 1.70 1.72 1.62 1.58 1.58
1.20 1.32 1.29 1.25 1.40 1.49 1.51 1.55 1.62 1.60 1.66 1.70 1.70 1.68 1.71 1.71 1.74 1.78 1.77 1.79 1.69 1.39 1.30 1.21 1.20 1.17 1.26 1.34 1.33 1.39 1.30 1.24 1.24 1.24 1.29 1.35 1.42 1.57 1.65 1.65 1.60 1.55 1.58
1.16 1.34 1.29 1.20 1.33 1.42 1.45 1.45 1.50 1.59 1.60 1.56 1.61 1.70 1.75 1.72 1.70 1.56 1.57 1.45 1.42 1.22 1.10 1.11 1.08 1.11 1.16 1.25 1.22 1.28 1.24 1.18 1.24 1.32 1.30 1.33 1.35 1.39 1.42 1.42 1.47 1.43 1.37
1.11 1.25 1.33 1.29 1.32 1.43 1.42 1.41 1.46 1.52 1.52 1.54 1.56 1.64 1.67 1.76 1.68 1.56 1.41 1.38 1.25 1.16 1.07 1.05 1.05 1.11 1.22 1.26 1.19 1.19 1.14 1.16 1.22 1.25 1.37 1.37 1.37 1.37 1.38 1.43 1.38 1.35 1.29
0.86 1.20 1.26 1.27 1.29 1.36 1.38 1.39 1.46 1.48 1.50 1.50 1.54 1.53 1.54 1.56 1.44 1.40 1.35 1.34 1.21 1.12 1.05 1.02 0.96 1.04 1.04 1.11 1.07 1.09 1.09 1.09 1.12 1.18 1.23 1.27 1.28 1.27 1.31 1.27 1.23 1.15 1.11
0.80 1.28 1.28 1.27 1.30 1.31 1.34 1.37 1.43 1.44 1.43 1.45 1.48 1.41 1.36 1.35 1.34 1.28 1.23 1.25 1.28 1.14 1.09 1.04 1.01 1.04 1.11 1.11 1.00 1.04 1.02 1.07 1.11 1.10 1.06 1.10 1.20 1.20 1.17 1.10 1.02 0.93 0.91
1.17 1.22 1.22 1.20 1.22 1.27 1.28 1.28 1.29 1.28 1.33 1.35 1.35 1.34 1.30 1.32 1.31 1.23 1.16 1.12 1.11 1.07 1.08 1.10 1.14 1.08 1.11 1.18 1.05 1.00 1.00 1.04 1.01 1.01 1.08 1.10 1.13 1.04 1.01 0.97 0.88 0.85 0.83
0.96 1.04 1.09 1.15 1.21 1.27 1.31 1.34 1.35 1.31 1.33 1.32 1.30 1.27 1.27 1.22 1.22 1.16 1.14 1.07 1.08 1.05 1.08 1.10 1.13 1.09 1.11 1.19 1.04 1.02 0.85 0.94 1.00 1.00 0.98 0.93 0.93 0.93 0.89 0.90 0.89 0.82 0.81
0.89 0.97 1.04 1.12 1.19 1.28 1.32 1.32 1.29 1.30 1.26 1.22 1.19 1.14 1.15 1.15 1.09 1.06 1.08 1.12 1.15 1.17 1.08 1.13 1.12 1.08 1.05 1.12 1.13 0.99 0.84 0.74 0.84 0.93 0.93 0.92 0.88 0.87 0.87 0.89 0.88 0.84 0.80
0.85 0.94 1.00 1.05 1.13 1.25 1.31 1.24 1.20 1.14 1.08 1.12 1.08 1.08 1.06 1.04 0.99 0.98 1.02 1.05 1.09 1.08 1.03 1.04 1.07 1.03 1.01 0.92 0.97 1.00 1.06 1.02 0.85 0.77 0.88 0.87 0.89 0.84 0.83 0.81 0.81 0.81 0.83
0.77 0.80 0.90 1.01 1.12 1.21 1.23 1.22 1.19 1.15 1.09 1.03 0.98 0.91 0.88 0.86 0.88 0.87 0.88 0.89 0.89 0.85 0.80 0.81 0.83 0.81 0.84 0.83 0.82 0.87 0.88 0.92 0.95 0.84 0.73 0.76 0.83 0.87 0.85 0.83 0.81 0.81 0.83
0.82 0.86 0.89 0.95 1.01 1.10 1.14 1.15 1.06 0.95 0.88 0.84 0.84 0.82 0.84 0.84 0.82 0.82 0.83 0.84 0.82 0.79 0.74 0.71 0.70 0.69 0.68 0.70 0.69 0.75 0.76 0.76 0.74 0.78 0.77 0.77 0.75 0.79 0.83 0.82 0.79 0.79 0.80
Wind_Speed
1 3 3 2 3 3 3 3 2 2 2 2 2 3 5 5 6 7 7 8 8 9 9 8 8 7 7 7 7 6 6 6 5 5 5 5 5 5 5 5 5 6 6
2 3 3 0 2 2 2 1 1 1 1 1 2 3 3 4 5 5 6 6 7 7 8 7 7 7 6 6 6 6 6 5 5 5 5 5 5 4 4 6 6 5 5
3 3 3 1 1 2 2 2 2 2 2 2 2 3 3 4 4 4 4 4 5 6 6 6 6 6 6 5 5 5 5 4 4 3 4 4 3 3 3 4 4 4 4
2 3 4 3 3 3 3 4 4 4 4 4 4 4 4 4 4 4 4 4 4 4 4 4 4 4 5 4 4 4 3 3 2 1 0 1 1 2 2 2 2 2 3
2 3 4 4 4 5 6 6 5 5 5 6 6 6 6 6 6 6 5 5 4 3 3 3 3 3 3 3 3 3 2 2 1 2 1 1 1 1 2 2 2 2 2
3 4 5 6 6 7 7 7 7 7 7 7 8 8 8 8 8 8 7 7 6 5 4 3 3 3 2 3 3 3 3 3 3 3 3 3 3 3 3 3 3 2 2
5 5 7 8 8 8 9 9 9 9 9 10 10 10 10 10 10 10 9 9 8 7 7 6 5 5 5 5 4 4 4 5 6 5 5 5 5 5 5 5 5 4 4
7 9 9 10 10 10 11 11 11 11 12 12 13 13 12 12 12 12 11 11 10 10 9 9 8 7 7 7 7 7 7 7 7 7 7 8 6 7 7 7 7 7 6
11 11 11 12 12 13 13 13 13 14 14 15 15 15 15 15 14 14 14 13 13 12 12 11 11 10 10 10 10 10 10 10 10 9 10 10 10 9 9 9 9 9 9
13 13 13 14 14 15 15 15 15 16 16 17 17 17 17 17 17 16 15 15 15 14 14 14 13 13 13 13 13 13 13 13 13 12 12 12 12 12 12 12 11 11 11
16 16 16 16 16 16 17 17 17 18 18 18 18 19 19 19 19 19 18 18 17 17 16 16 15 16 16 15 15 15 15 15 15 15 14 14 14 15 15 14 14 13 13
18 18 18 17 17 18 18 18 19 19 20 20 20 20 20 20 20 21 20 19 19 19 18 18 17 17 18 18 17 17 17 17 16 17 17 16 17 17 17 16 15 15 14
19 19 19 19 19 19 19 18 19 19 20 21 21 21 21 21 21 22 21 22 22 21 19 18 18 18 18 18 17 17 18 18 18 18 17 17 17 17 17 17 17 17 16
19 20 19 19 19 20 19 20 20 20 20 20 21 22 22 23 23 24 24 23 22 20 18 18 18 18 17 18 18 18 17 17 16 16 15 15 15 15 17 17 17 18 17
20 20 20 20 20 20 20 19 20 20 20 21 21 22 23 24 24 25 25 24 22 19 18 18 18 18 17 18 17 17 17 16 16 16 16 15 15 16 14 14 14 15 15
20 20 19 19 20 19 19 19 20 21 20 20 20 22 23 24 24 25 25 23 21 16 17 18 18 17 16 16 16 16 16 16 15 15 14 14 13 12 11 11 12 12 15
18 18 18 18 18 19 20 20 20 20 20 20 21 23 23 23 22 24 23 22 19 20 17 18 18 18 18 17 16 16 16 15 15 14 14 14 13 14 14 15 15 16 17
17 17 16 17 18 18 18 19 18 18 19 20 21 22 26 24 21 27 28 31 24 21 21 20 19 18 17 17 16 17 16 16 15 14 14 15 15 14 14 15 16 16 18
19 18 16 17 18 18 18 18 17 16 16 17 17 20 20 20 20 24 25 22 25 21 21 21 21 20 19 18 18 18 18 18 17 16 16 16 17 17 17 18 19 19 20
16 15 15 16 16 17 17 15 15 15 15 15 17 17 19 18 19 19 18 14 14 18 22 22 22 22 22 20 19 18 19 19 19 19 19 20 18 19 21 21 21 21 20
13 14 15 15 15 15 14 14 15 16 16 17 18 20 19 21 19 20 18 17 18 20 19 20 24 21 22 21 21 22 22 22 21 22 21 20 21 22 22 22 21 21 20
11 13 13 14 14 15 15 15 15 15 17 18 18 18 20 20 21 21 20 20 19 20 22 23 21 21 22 25 26 24 25 25 24 23 23 23 24 23 23 23 22 22 21
10 11 11 12 12 13 13 13 13 15 16 17 18 21 21 21 20 20 19 20 21 23 24 27 27 28 26 28 28 27 23 25 24 26 26 26 26 25 25 25 24 23 22
9 10 10 10 11 12 13 13 14 16 17 18 20 20 21 20 21 20 22 23 24 23 24 25 27 27 27 28 27 28 30 26 26 27 28 28 28 28 27 26 25 24 24
10 10 10 11 11 12 13 13 14 16 17 18 19 20 21 21 22 23 23 23 23 24 25 25 26 27 28 29 30 28 28 31 30 28 28 29 30 31 30 29 29 28 27
10 10 10 10 11 12 13 15 16 17 18 19 20 21 22 23 24 24 25 26 27 27 27 27 28 28 29 30 31 32 32 30 31 31 30 29 30 32 32 32 32 31 29
Wind_Direction
131 148 142 80 50 39 42 58 64 54 42 33 26 21 24 26 29 30 32 34 35 37 40 42 47 51 56 61 66 70 72 72 76 83 88 93 97 99 97 102 98 98 100
201 183 184 150 25 16 21 19 5 344 337 331 345 357 2 6 11 16 21 25 29 32 36 40 44 51 56 62 65 67 71 72 75 81 93 94 98 97 90 96 107 106 101
201 195 204 239 314 334 337 326 309 297 291 287 298 317 326 335 342 350 359 6 16 24 32 38 42 47 55 61 61 63 66 67 73 82 107 83 94 102 103 110 111 113 111
199 212 228 246 283 304 310 306 293 284 275 270 279 291 301 309 315 322 327 334 346 3 17 26 34 41 49 55 56 50 52 58 57 43 58 172 117 125 125 132 126 125 124
227 242 250 254 272 288 293 294 287 279 272 269 271 279 288 293 295 298 302 303 304 318 337 355 9 19 28 36 33 25 18 5 347 327 257 223 206 195 185 172 161 157 172
258 266 263 259 272 282 285 286 283 277 269 267 268 273 280 283 285 284 285 288 284 286 294 304 314 323 328 335 341 334 328 316 308 307 277 245 236 238 226 225 208 202 196
271 279 269 261 272 278 281 281 278 274 270 268 269 270 274 278 280 277 277 277 276 274 275 279 285 289 293 298 303 305 303 298 301 284 273 255 251 244 238 235 230 226 218
276 279 277 263 272 275 279 278 275 273 271 269 269 269 271 274 275 273 272 271 271 270 269 270 273 278 281 284 287 290 288 287 289 288 276 261 248 249 244 240 237 234 231
277 280 275 268 270 273 275 277 276 274 272 271 270 269 269 271 271 270 270 268 267 267 267 268 269 273 276 278 281 282 283 282 282 280 274 267 258 252 248 246 242 238 235
275 276 276 271 272 273 275 276 277 276 272 270 270 268 268 269 269 267 268 265 265 267 267 267 269 271 273 275 278 280 280 280 276 277 273 265 257 255 250 246 244 240 238
276 275 274 273 272 273 275 275 277 276 273 271 270 269 268 268 267 264 264 263 264 266 267 268 269 271 272 274 276 277 278 277 276 274 271 265 263 254 250 247 245 244 243
274 273 271 271 272 273 275 276 276 275 272 270 269 269 269 269 267 264 260 262 263 263 267 267 268 271 273 277 274 276 276 274 275 274 271 267 263 255 250 245 244 244 244
271 270 270 270 270 272 275 277 275 276 273 270 269 268 268 268 268 265 266 266 262 262 264 265 269 271 273 276 274 278 278 277 274 270 276 270 264 254 246 244 244 245 245
272 268 269 270 269 270 274 276 275 275 275 273 270 268 268 269 269 268 267 266 263 261 263 265 269 271 272 277 279 278 279 278 276 274 274 267 263 258 251 245 248 247 245
273 269 269 270 269 270 271 273 275 276 277 276 272 270 270 271 272 270 268 264 260 260 266 268 270 271 274 277 281 279 278 278 277 273 273 270 264 260 250 247 247 246 240
273 268 268 268 270 267 268 273 273 275 278 278 277 278 275 275 276 276 271 263 247 259 268 269 270 270 272 276 279 281 279 277 276 272 268 265 265 255 247 247 251 245 246
271 269 265 266 271 269 268 274 274 276 277 278 280 279 276 275 280 287 270 254 273 267 269 269 268 268 270 273 278 279 280 278 274 268 266 259 256 255 254 258 258 257 257
270 266 266 267 269 271 271 272 276 276 279 282 282 288 279 275 281 284 289 278 267 263 269 265 270 269 271 272 278 279 278 274 271 266 261 258 257 256 257 258 263 263 264
271 264 264 267 268 269 269 272 273 277 281 287 286 293 295 287 285 303 299 289 251 264 267 266 269 268 269 271 277 279 277 273 268 262 264 259 257 258 259 263 267 269 267
271 262 263 268 267 266 269 270 272 276 283 286 291 293 302 298 301 304 307 290 279 279 268 268 268 266 268 267 276 277 276 274 269 264 261 262 256 259 263 267 268 269 267
274 265 264 265 265 264 264 267 272 276 280 285 289 293 297 299 300 299 301 291 287 284 278 274 272 268 265 267 274 279 278 274 270 268 263 258 260 263 265 266 267 267 265
274 269 267 263 261 260 262 266 271 274 281 287 289 293 299 299 300 302 297 292 286 286 282 277 277 267 272 271 272 276 277 273 268 264 263 263 264 264 264 263 265 266 264
273 272 266 263 260 258 257 263 267 277 284 287 291 296 295 298 300 301 299 296 290 287 288 276 273 275 273 277 269 273 278 272 268 265 263 263 264 263 263 263 262 262 264
280 277 268 265 260 257 260 262 265 276 281 286 292 295 295 296 297 298 297 294 291 288 287 281 277 275 272 272 272 269 270 272 270 270 265 263 262 261 261 261 262 261 261
277 279 272 267 263 263 265 269 273 280 284 287 290 292 292 293 296 299 299 298 295 293 290 285 280 277 273 271 271 271 270 269 269 271 267 263 261 259 259 259 260 259 261
275 276 274 270 267 268 272 276 279 282 286 288 290 290 290 291 293 294 295 297 296 295 292 288 284 280 276 274 272 270 269 268 267 267 267 265 261 259 259 259 258 258 259